Погода в Тебе

Россия / Кемеровская область (Кузбасс)     53°38′33″N   88°32′58″E
темп.,
°C
ветер,
м/с
пор.,
м/с
влажн.,
%
обл.,
%
осадки,
мм/ч
давл.,
гПа
погр.,
м
22 января, сб
сб2201:00−18всв22915 0.0 103219
04:00−19в22935 0.0 103217
07:00−20в21945 0.0 103314
10:00−19в21915 0.0 103423
13:00−9ююв01772 0.0 1032196
16:00−8зюз11875 0.0 103232
19:00−18в219822 0.0 103610
22:00−19в219836 0.0 103713
23 января, вс
вс2301:00−20в219822 0.0 103713
04:00−21в21985 0.0 103713
07:00−21в219727 0.0 103713
10:00−19в119597 0.0 103723
13:00−10зюз118680 0.0 1034183
16:00−10з119178 0.0 1033121
19:00−18в1199100 0.0 10369
22:00−19в2199100 0.0 103711
24 января, пн
пн2401:00−18в1198100 0.0 103611
04:00−16в1198100 0.0 103611
07:00−16в1098100 0.0 103614
10:00−14ссв0096100 0.0 103655
13:00−12з1190100 0.1 1037313
16:00−11з1292100 0.1 1037329
19:00−16зсз0099100 0.2 10409
22:00−18всв1199100 0.1 104210
25 января, вт
вт2501:00−20в1199100 0.2 104311
04:00−22в219999 0.1 104313
07:00−22в1198100 0.1 104218
10:00−18в119497 0.0 104146
13:00−13юз008778 0.0 1039278
16:00−13з108895 0.0 1037272
19:00−20всв1110056 0.0 10409
22:00−22в2110059 0.0 104012
26 января, ср
ср2601:00−20в219894 0.0 103915
04:00−20в1198100 0.0 103812
07:00−19в1197100 0.0 103813
10:00−17в119395 0.0 103734
13:00−11ююв018782 0.0 1034274
16:00−10з008886 0.0 1033269
19:00−18в219968 0.0 103510
22:00−20в219967 0.0 103614